Location: ????????
(55.1591°N, 39.1782°E)
Time: 09:18:57
(UTC+00:00)

Meteor 1-28 Rocket - Pass Details

Date: 14 April 2024
Orbit: 475 x 492 km, 97.5° (Epoch: 19 May)

Event Time Altitude Azimuth Distance (km) Brightness Sun altitude
Exits shadow 00:42:15 22° 246° (WSW) 1,136 4.3 -13.2°
Maximum altitude 00:43:05 24° 267° (W) 1,078 4.4 -13.1°
Drops below altitude 10° 00:46:07 10° 322° (NW) 1,715 5.9 -12.8°
Sets 00:48:31 0° 337° (NNW) 2,604 7.0 -12.5°
